Regional Weather Roundup
Issued by NWS

Home | Current Version | Previous Version | Text Only | Print | Product List | Glossary On
Versions: 1 2 3 4 5 6 7 8 9 10 11 12 13 14 15 16 17 18 19 20 21 22 23 24 25 26 27 28 29 30 31 32 33 34 35 36 37 38 39 40 41 42 43 44 45 46 47 48 49 50
000
ASUS43 KLSX 130457
RWRMO

WEATHER SUMMARY FOR MISSOURI
NATIONAL WEATHER SERVICE SPRINGFIELD MO
1200 AM CDT THU AUG 13 2020

NOTE: "FAIR" INDICATES FEW OR NO CLOUDS BELOW 12,000 FEET WITH NO
       SIGNIFICANT WEATHER AND/OR OBSTRUCTIONS TO VISIBILITY.
       CURRENT SKY AND/OR WEATHER CONDITIONS ARE NOT AVAILABLE FOR
       CHILLICOTHE AND FARMINGTON.

MOZ001>031-035>038-043-044-053-054-130600-
...NORTHERN AND WESTERN MISSOURI...

CITY           SKY/WX    TMP DP  RH WIND       PRES   REMARKS
KANSAS CTY INT LGT RAIN  78  72  81 SE14G21   29.98F
LEE`S SUMMIT   MOCLDY    80  70  71 SE7       30.00F
ST JOSEPH      MOCLDY    76  72  87 S5        29.99R
CHILLICOTHE      N/A     75  73  93 MISG      30.02S

$$
MOZ066>068-077>081-088>096-101>105-130600-
...SOUTHWEST MISSOURI...

CITY           SKY/WX    TMP DP  RH WIND       PRES   REMARKS
SPRINGFIELD    CLEAR     75  68  78 SE8       30.02S
JOPLIN         CLEAR     77  69  76 SE7       30.00R

$$
MOZ032>034-039>042-045>050-055>058-069>072-130600-
...CENTRAL MISSOURI...

CITY           SKY/WX    TMP DP  RH WIND       PRES   REMARKS
COLUMBIA       NOT AVBL
JEFFERSON CITY CLEAR     77  70  79 E8        30.02R
ROLLA          CLEAR     72  69  90 SE6       30.06S
SEDALIA        CLEAR     74  71  91 E7        30.02F

$$
MOZ051-052-059>065-130600-
...EAST CENTRAL MISSOURI...

CITY           SKY/WX    TMP DP  RH WIND       PRES   REMARKS
ST LOUIS INTL  PTCLDY    76  70  82 E3        30.05S

$$
MOZ072>076-082>087-097>100-106>115-130600-
...SOUTH CENTRAL AND SOUTHEAST MISSOURI...

CITY           SKY/WX    TMP DP  RH WIND       PRES   REMARKS
CAPE GIRARDEAU PTCLDY    74  72  93 E3        30.03R
POPLAR BLUFF   PTCLDY    73  70  90 N6        30.01S
WEST PLAINS    CLEAR     71  68  90 E3        30.06F

$$



USA.gov is the U.S. government's official web portal to all federal, state and local government web resources and services.